RH
27 45 56 20 12 51 75 54 72 72 85 90 95 98 97 91 95 93 70 72 90 72 88 92 87 80 82 94 94 97 93 90 51 38 19 10 4 3 4 5 10 15 24 34
32 49 53 13 8 40 62 67 61 62 72 77 97 95 97 97 96 89 92 92 78 72 84 95 93 90 96 91 85 81 49 22 8 10 14 5 4 5 11 18 26 32 48 55
46 45 57 27 4 19 59 61 72 67 71 75 82 100 92 97 97 96 96 97 96 96 97 96 97 97 95 73 47 31 24 17 8 14 14 14 16 25 32 37 47 62 52 42
63 43 62 35 3 13 56 56 81 70 64 71 84 94 96 97 96 97 97 97 97 94 93 98 95 96 84 67 48 42 33 38 38 36 41 41 39 37 48 60 60 53 40 39
62 51 62 40 8 10 48 56 77 75 70 62 89 89 99 98 97 98 96 98 97 98 93 96 95 88 91 73 69 68 73 69 80 76 68 70 77 75 66 55 42 34 35 44
31 60 62 60 15 8 26 52 60 89 79 74 76 87 92 97 100 96 95 96 98 98 99 97 97 94 90 85 85 92 88 92 88 91 95 94 90 72 59 47 38 38 40 34
21 64 60 71 20 7 15 35 43 71 86 87 83 90 93 91 97 97 99 96 94 94 97 98 97 97 97 96 96 96 93 86 86 89 91 72 53 45 46 41 37 42 32 11
24 43 62 73 40 5 10 25 50 52 68 88 100 96 95 77 81 57 64 54 51 41 43 42 47 53 53 46 44 44 42 39 36 33 32 32 32 33 36 47 43 26 19 22
28 31 58 68 80 7 8 20 36 45 38 68 91 98 88 82 44 33 30 47 35 26 25 23 23 21 16 16 17 17 18 19 20 21 20 22 31 36 47 39 30 27 26 26
31 29 46 69 74 70 8 14 21 34 47 40 54 88 86 68 40 36 19 16 23 23 24 25 38 53 64 64 62 64 71 77 74 76 65 58 49 42 29 30 28 28 27 26
34 30 43 59 71 82 71 10 15 28 33 42 40 50 74 76 47 34 26 18 17 18 24 30 38 51 68 64 76 82 76 71 57 51 37 34 34 30 31 31 31 31 34 33
39 34 31 52 66 73 84 79 14 14 24 32 34 34 40 64 65 46 33 37 31 19 14 14 24 57 77 81 86 83 72 54 37 37 36 35 35 35 35 35 36 37 36 37
45 39 31 43 55 70 71 84 94 31 16 21 32 32 27 36 58 64 53 41 41 43 34 17 15 29 61 72 73 76 61 47 41 34 36 37 36 38 38 40 40 42 46 48
53 45 36 35 58 62 70 71 79 88 66 26 21 26 28 21 22 37 51 56 50 47 42 23 15 32 57 63 54 46 39 37 35 36 40 41 43 42 42 44 49 53 55 56
61 51 40 38 45 60 66 64 70 75 79 82 80 56 44 32 23 15 12 14 20 26 20 12 40 75 72 61 49 43 39 37 39 42 45 45 44 45 46 49 58 63 66 64
65 57 46 39 42 48 54 66 66 64 73 72 75 73 76 76 87 95 75 43 33 30 34 54 77 70 57 52 45 41 40 40 42 43 43 45 48 49 54 63 66 66 68 66
71 62 52 42 41 46 49 48 54 61 56 58 73 81 78 74 64 55 49 49 56 65 66 63 55 51 49 44 40 44 40 41 42 44 44 50 54 56 60 60 57 60 68 71
86 70 59 50 46 45 48 48 48 47 46 49 47 54 76 81 79 78 76 71 63 55 49 44 39 35 32 32 36 37 39 41 44 47 49 49 54 62 62 64 71 77 80 82
100 96 75 58 54 50 52 50 49 46 42 40 41 43 50 61 77 79 74 70 69 65 60 56 54 44 43 45 46 47 48 49 51 56 65 70 69 70 78 82 84 91 91 80
100 99 95 73 64 61 54 52 45 43 39 42 52 54 48 42 52 67 74 76 68 65 58 56 59 51 48 49 50 52 59 69 77 79 76 79 80 85 90 90 92 90 83 80
98 100 100 100 95 74 73 67 59 54 47 39 41 47 53 58 60 59 58 57 57 57 53 55 57 60 66 78 88 93 94 90 85 85 82 82 90 93 94 93 88 84 78 66
100 100 100 98 98 97 88 71 63 64 66 66 67 74 72 72 75 74 66 62 66 66 64 64 65 64 78 91 89 91 90 84 79 78 80 88 91 89 87 84 80 73 59 46
100 100 100 99 96 83 67 58 57 66 79 92 97 95 96 100 96 97 99 98 93 92 91 95 99 98 93 88 85 82 79 76 77 83 85 83 80 84 82 76 70 60 50 43
100 100 99 100 82 75 65 70 70 73 88 100 97 100 100 97 99 98 95 93 92 92 96 100 95 94 94 85 78 74 71 74 75 76 79 80 81 80 77 73 66 56 49 38
100 100 97 78 70 71 71 76 76 77 91 100 100 100 100 93 88 89 92 98 96 97 98 96 88 73 67 65 65 70 72 69 71 74 79 80 81 79 77 71 62 53 40 33
100 95 87 79 79 74 75 74 74 74 83 96 100 100 100 100 100 96 98 100 100 98 93 80 71 67 64 68 69 66 66 68 71 76 81 82 80 77 74 67 54 42 35 26
98 86 87 87 90 89 83 82 80 78 76 83 87 90 93 98 100 97 100 100 96 92 89 80 73 67 70 67 65 64 67 66 67 72 76 76 74 72 64 52 42 35 26 18
Wind_Speed
14 19 21 16 15 7 4 10 5 6 7 11 18 11 13 15 15 17 25 30 32 41 42 39 43 41 45 38 36 41 38 35 34 32 31 31 28 27 26 22 18 15 13 14
11 18 17 15 17 11 7 5 5 6 6 8 16 16 14 16 16 23 22 22 32 38 36 33 35 35 37 33 31 32 32 32 33 34 32 29 26 24 21 20 18 15 15 16
9 16 14 14 16 16 10 3 4 10 9 11 15 12 12 11 20 18 19 19 26 33 36 36 35 39 35 30 30 30 30 29 26 22 19 21 22 21 20 18 16 16 13 18
6 15 11 12 14 17 10 2 2 12 12 10 12 15 12 14 18 22 18 20 23 23 23 34 34 32 32 29 28 27 26 23 22 23 23 22 21 20 19 16 19 17 18 17
7 12 11 8 13 18 15 5 1 11 13 10 8 11 12 14 17 20 21 19 18 15 20 26 30 31 29 28 30 25 21 22 19 20 19 18 18 19 19 19 21 19 20 16
10 9 13 6 11 20 19 12 6 7 11 11 12 13 12 13 15 15 18 16 18 17 16 18 23 23 27 29 33 34 36 30 29 25 21 19 20 20 20 21 21 20 15 17
12 10 14 7 9 23 23 18 11 6 8 14 16 14 13 15 14 21 20 20 19 17 16 18 19 18 19 15 19 18 15 16 16 18 17 20 21 23 22 22 22 17 17 21
15 14 13 9 6 23 26 23 17 12 8 13 16 17 16 16 19 17 17 16 17 16 16 14 14 13 13 13 13 13 15 16 18 19 20 20 21 21 20 19 21 22 22 24
19 16 15 14 8 18 26 25 24 20 15 13 15 19 19 19 18 15 16 14 11 10 11 10 7 8 9 13 14 16 19 20 21 20 20 20 20 20 20 23 24 25 28 31
23 19 19 17 15 12 26 27 30 26 25 20 18 21 22 22 20 16 14 14 16 14 10 7 7 7 9 12 14 16 17 17 16 15 16 17 19 19 23 24 26 30 34 37
26 23 22 21 19 17 17 30 33 32 28 29 25 24 24 26 26 22 17 13 13 12 12 10 10 11 13 15 19 19 19 18 18 18 18 20 19 24 27 29 31 34 37 41
28 26 25 25 23 22 20 20 30 36 34 33 32 29 27 29 29 30 26 21 18 16 17 18 16 16 17 18 18 21 22 20 20 22 23 23 27 29 30 33 37 40 43 47
30 29 27 28 27 26 25 21 20 27 37 36 37 36 32 32 32 33 34 31 30 28 27 25 24 23 22 21 20 24 23 25 24 26 28 32 33 34 37 38 41 44 46 48
31 30 29 28 29 28 28 26 24 22 25 33 35 34 35 35 35 35 35 38 38 37 37 35 34 29 28 26 26 26 29 28 28 29 31 36 37 40 41 43 45 47 49 50
33 31 32 30 29 30 28 27 28 27 27 25 26 29 31 32 35 37 39 40 42 43 40 37 33 31 29 29 30 31 34 31 30 30 34 36 39 43 46 48 50 52 53 55
34 32 32 32 30 29 29 29 28 28 31 30 30 29 27 26 26 26 27 31 35 37 37 36 31 29 29 29 28 37 33 32 34 37 39 41 42 45 48 51 53 56 58 61
35 33 32 32 32 31 29 29 29 30 29 29 31 32 31 31 30 29 28 29 30 33 33 32 30 30 30 30 31 41 36 38 40 42 45 46 47 50 54 57 59 60 62 62
36 34 34 33 33 32 31 30 31 31 31 31 30 27 29 31 32 33 32 33 34 35 34 34 35 33 34 33 39 40 42 44 45 47 49 52 56 59 61 62 63 61 60 59
41 38 36 34 34 34 34 34 33 33 33 32 30 29 29 30 32 35 35 36 37 37 37 38 40 37 33 40 40 42 44 47 49 54 58 60 62 64 64 59 56 55 58 60
42 45 40 36 36 37 36 35 36 37 36 33 31 32 32 33 33 33 36 38 39 39 39 40 42 37 39 41 43 47 51 54 58 60 62 62 62 58 54 53 55 57 58 60
42 38 42 42 40 38 37 37 35 35 33 33 34 34 34 35 36 37 39 40 42 44 43 46 46 42 47 50 54 57 59 60 59 58 56 52 51 52 53 55 56 57 59 60
43 41 43 44 42 42 43 44 40 37 37 36 33 33 36 36 36 37 38 40 44 47 46 49 50 51 52 53 53 53 52 50 49 48 49 50 51 52 53 54 55 56 58 62
47 46 45 45 47 48 48 45 42 38 29 28 31 32 33 34 37 39 40 43 44 43 44 45 47 46 46 46 46 46 46 46 46 49 50 50 51 51 52 54 56 59 62 66
50 50 49 48 49 47 47 47 45 41 36 33 33 33 32 32 32 34 37 40 39 40 39 40 40 40 43 45 46 47 46 46 48 50 51 52 52 53 56 58 60 63 67 70
56 56 54 51 48 46 46 44 44 45 43 36 34 37 36 36 37 37 36 36 38 38 39 38 40 42 43 44 46 46 47 49 51 52 53 54 57 59 60 61 63 67 69 72
60 59 55 53 50 49 48 47 46 45 45 44 42 42 41 40 38 36 36 38 41 42 41 42 43 45 46 47 48 49 50 51 53 54 56 57 58 60 61 64 67 69 71 70
68 61 58 56 55 53 51 49 49 49 49 50 47 45 45 44 43 40 39 42 45 44 45 46 47 47 48 50 51 51 52 54 56 57 58 59 61 62 63 66 70 71 69 64
Wind_Direction
300 311 331 293 262 252 307 43 33 46 83 56 78 63 120 99 105 132 122 134 155 160 157 161 169 179 185 178 187 186 189 191 198 205 209 215 216 218 225 231 233 236 248 260
296 303 329 309 251 233 264 34 40 136 109 86 78 75 94 112 127 139 156 146 157 160 171 174 180 179 177 172 174 177 184 190 195 196 205 210 213 219 223 229 235 243 252 262
292 291 325 311 250 237 249 15 34 139 132 110 93 85 84 108 123 148 144 156 163 178 183 188 179 174 162 163 173 181 185 192 196 199 206 212 214 222 227 233 242 242 249 250
276 280 317 311 262 236 238 238 72 151 145 129 109 100 111 118 116 128 142 145 149 163 163 173 161 158 162 175 178 178 183 187 189 193 202 209 212 223 230 232 237 244 238 253
238 269 296 310 260 232 228 231 167 171 171 166 142 127 121 135 133 122 125 135 142 156 168 162 168 168 174 186 188 191 180 195 202 199 204 211 216 225 229 236 241 239 243 238
234 256 277 287 271 229 232 222 212 190 183 176 157 144 146 150 163 159 141 142 146 157 172 182 185 185 194 197 198 203 200 211 212 218 223 223 225 237 237 243 249 253 256 252
241 219 262 271 257 221 230 229 217 211 184 186 169 158 159 142 146 141 154 159 156 148 143 152 167 176 187 183 192 190 187 194 198 202 213 219 217 230 240 247 256 262 258 267
242 208 242 246 250 223 225 226 218 203 200 193 179 165 160 138 122 121 123 137 138 136 142 147 159 171 181 191 196 206 216 225 230 230 231 233 237 244 250 254 257 262 272 278
240 215 215 235 226 223 222 219 224 213 202 195 193 189 175 160 161 151 154 153 153 151 160 157 183 204 214 226 227 231 234 236 239 241 243 247 247 253 251 253 265 271 281 286
235 224 206 221 222 218 222 220 224 223 214 209 202 200 203 191 184 179 166 165 176 178 180 200 214 235 244 240 240 238 239 241 242 243 243 245 245 251 259 265 275 279 284 288
234 228 212 210 219 217 215 222 225 228 224 220 214 209 209 210 204 202 193 194 196 206 215 234 248 252 253 255 249 246 241 243 244 249 252 253 261 262 265 273 277 282 286 290
235 229 219 211 213 221 221 212 221 228 229 228 227 221 217 215 216 218 217 219 231 243 248 258 260 253 251 247 244 245 246 250 250 253 258 262 264 268 273 279 285 289 294 298
233 232 223 217 212 214 224 226 215 220 223 224 230 236 232 225 222 222 226 233 242 252 261 263 264 263 254 249 246 248 249 252 258 264 272 271 274 280 284 290 294 299 303 305
230 230 227 221 216 214 215 223 231 224 222 227 232 234 237 237 235 232 232 236 242 250 259 263 268 266 259 251 250 256 258 258 260 266 270 279 286 287 293 298 301 302 303 304
228 226 229 224 223 220 218 220 221 229 235 233 229 231 238 245 246 242 241 244 247 252 256 259 263 260 255 251 253 259 262 266 270 271 278 282 288 293 294 297 302 303 305 305
225 225 227 227 225 227 226 224 224 226 227 229 238 239 239 239 240 243 250 254 256 257 259 259 258 259 256 256 261 264 271 276 277 277 279 281 284 288 293 297 299 298 298 299
223 225 225 226 229 229 231 230 232 233 235 236 236 235 238 241 244 244 244 247 250 253 257 262 265 264 267 268 267 272 275 274 274 276 280 284 288 291 293 294 295 297 299 299
222 224 228 227 228 230 233 234 236 238 241 244 246 251 249 248 248 248 250 253 255 258 262 263 263 263 265 266 265 268 271 273 275 278 282 286 290 293 293 295 297 298 297 298
230 225 226 230 230 230 231 232 235 238 240 243 248 251 253 253 254 255 255 256 258 261 262 262 264 265 264 260 264 268 272 275 280 283 287 290 292 293 295 297 297 296 297 299
235 232 221 227 232 232 231 234 235 238 241 242 246 250 255 257 258 256 255 257 257 259 261 263 264 264 262 268 272 275 278 281 283 287 290 291 292 293 294 294 294 295 297 299
231 239 233 227 228 232 233 234 236 240 244 244 246 251 256 257 258 259 259 261 263 263 263 265 267 267 269 272 273 275 278 282 285 287 288 290 291 292 292 292 294 295 297 298
230 241 240 231 230 232 235 238 241 246 251 252 252 253 254 256 258 260 261 262 265 267 271 270 272 273 275 277 278 279 280 282 283 287 289 290 290 291 291 291 292 295 298 302
233 238 244 242 237 238 242 242 243 251 255 247 247 248 249 252 256 260 263 265 269 272 272 274 275 277 278 278 279 281 283 287 291 291 290 289 288 288 290 292 296 299 303 307
234 237 239 242 245 244 245 250 252 251 244 247 245 244 249 255 261 265 269 271 271 272 272 272 276 279 281 283 286 289 291 291 290 289 289 289 291 293 294 296 300 303 307 311
232 234 235 237 241 244 248 250 251 249 248 250 244 245 252 256 259 262 267 271 270 269 268 273 276 280 284 288 291 291 290 291 291 291 292 293 294 296 298 300 303 306 310 311
230 230 233 236 240 245 247 250 251 249 251 249 252 256 260 261 260 260 264 268 265 266 270 276 280 283 286 288 289 291 292 293 292 292 293 294 296 297 300 302 304 308 309 310
227 230 232 235 238 241 244 247 247 246 247 250 253 257 262 262 262 263 265 262 264 270 273 278 281 285 287 287 288 290 292 293 294 295 295 295 296 298 300 303 307 308 308 306